Вернуться в каталог

SL-8 DEB

АктивенLEO
NORAD 15785·DEBRIS·🇷🇺 Russia

Запущен Feb 21, 1984 с Plesetsk Cosmodrome

Loading…

Ближайшие Пролёты (ближайшие 24 часа)

TLE

СвежийSource: Space-Track

Эпоха: Sep 14, 2026, 06:56 UTC

1 15785U 84019C   26257.28895627  .00001599  00000-0  25355-3 0  9994
2 15785  74.0303 113.3611 0007692 149.7350 210.4268 14.73055043347238

Отслеживайте SL-8 DEB в реальном времени с AllMySat

Download on the App Store